Regional Weather Roundup
Issued by NWS Kansas City/Pleasant Hill, MO

Home | Current Version | Previous Version | Text Only | Print | Product List | Glossary On
Versions: 1 2 3 4 5 6 7 8 9 10 11 12 13 14 15 16 17 18 19 20 21 22 23 24 25 26 27
000
ASUS43 KEAX 180210
RWREAX

WEATHER ROUNDUP FOR EASTERN KANSAS AND NORTHWEST MISSOURI
NATIONAL WEATHER SERVICE KANSAS CITY/PLEASANT HILL MO
900 PM CDT THU AUG 17 2017

KSZ040-057-103>105-MOZ028-029-037-043-180300-
...KANSAS CITY METROPOLITAN AREA...

CITY           SKY/WX    TMP DP  RH WIND       PRES   REMARKS
K.C. INTL      CLEAR     76  63  64 W3        29.94R
K.C. DOWNTOWN  CLEAR     79  64  60 NW3       29.92R
LEES SUMMIT    CLEAR     74  63  68 SW6       29.94R
OLATHE - IXD   CLEAR     72  62  71 SW7       29.95S
OLATHE - OJC   CLEAR     73  64  73 SW5       29.95R
LAWRENCE       CLEAR     68  67  96 CALM      29.94R

$$

MOZ001>008-011>017-020>025-030>033-038>040-044>046-053-054-180300-
...NORTHERN AND CENTRAL MISSOURI...

CITY           SKY/WX    TMP DP  RH WIND       PRES   REMARKS
ST. JOSEPH     CLEAR     67  65  93 CALM      29.92R
MOSBY          CLEAR     70  64  83 CALM      29.92R
WARRENSBURG    CLEAR     70  63  78 SW7       29.93R
WHITEMAN AFB   CLEAR     73  69  88 W6        29.92R
CLINTON        CLEAR     68  64  88 SW6       29.95R
SEDALIA        CLEAR     73  65  75 SW6       29.94R
WARSAW         NOT AVBL
CHILLICOTHE      N/A     70  62  76 CALM      29.92R
KIRKSVILLE     CLEAR     72  61  68 W6        29.91R

$$

MOZ041-047>049-056>058-063>065-088>090-097-180300-
...EASTERN AND SOUTHERN MISSOURI...

CITY           SKY/WX    TMP DP  RH WIND       PRES   REMARKS
ST. LOUIS INTL PTCLDY    78  65  63 W6        29.90R
SPIRIT OF STL  CLEAR     72  69  90 CALM      29.89R
COLUMBIA       CLEAR     71  62  73 W6        29.92R
JEFFERSON CITY CLEAR     75  67  76 CALM      29.91R
ROLLA          CLEAR     68  64  87 SW7       29.96R
OSAGE BEACH    CLEAR     70  65  84 CALM      29.96R
SPRINGFIELD    CLEAR     74  64  71 W6        29.98R
BRANSON        PTCLDY    75  68  78 CALM      30.00R
JOPLIN         CLEAR     73  65  75 CALM      29.99R
WEST PLAINS    CLEAR     73  67  81 W5        29.98R

$$

IAZ060-094-KSZ022-034>040-054-083-096-NEZ052-066-093-180300-
...KANSAS...SOUTHEAST NEBRASKA AND IOWA...

CITY           SKY/WX    TMP DP  RH WIND       PRES   REMARKS
TOPEKA         CLEAR     75  62  64 SW6       29.94R
MANHATTAN      CLEAR     70  64  81 CALM      29.94S
EMPORIA        CLEAR     71  63  75 S5        29.97R
CHANUTE        CLEAR     71  65  81 S3        29.98R
WICHITA        CLOUDY    75  63  66 S9        29.98R
OMAHA          CLEAR     77  62  59 CALM      29.90S
LINCOLN        CLEAR     75  65  70 S3        29.92S
FALLS CITY     CLEAR     74  61  63 SW3       29.92R
LAMONI         CLEAR     67  60  78 W7        29.91R
DES MOINES     CLEAR     74  59  59 W8        29.87R

$$





USA.gov is the U.S. government's official web portal to all federal, state and local government web resources and services.